[Date Prev][Date Next][Thread Prev][Thread Next] - [Date Index][Thread Index][Author Index]
2 Line ISS Keps 1-30
- Subject: [sarex] 2 Line ISS Keps 1-30
- From: "Dave Larsen PhD" <doc@xxxxxxxxxxx>
- Date: Sun, 30 Jan 2005 06:13:40 -0800
ISS
1 25544U 98067A 05030.48143822 .00009924 00000-0 83939-4 0 7011
2 25544 51.6455 245.0353 0009591 47.0449 26.3962 15.70428566354039
----
Via the sarex mailing list at AMSAT.ORG courtesy of AMSAT-NA.
To unsubscribe, send "unsubscribe sarex" to Majordomo@amsat.org
AMSAT Home